Current Version              Previous Version:    01  02  03  04  05  06  07  08  09  10  11  12  13  14  15  16  17  18  19  20  21  22  23  24  25  26  27  28  29  30  
   31  32  33  34  35  36  37  38  39  40  41  42  43  44  45  46  47  48  49  50  51  52  53  54  55  56  57  58  59  60  

[Printable]
932
ASUS44 KEWX 251110
RWRTX
SOUTH TEXAS REGIONAL WEATHER ROUNDUP
NATIONAL WEATHER SERVICE AUSTIN/SAN ANTONIO TX
500 AM CST SUN JAN 25 2015

NOTE: "FAIR" INDICATED FEW OR NO CLOUDS BELOW 12,000 FEET WITH NO
SIGNIFICANT WEATHER AND/OR OBSTRUCTIONS TO VISIBILITY.

* - THESE STATIONS ARE NOT NWS OR FAA STATIONS...AND ARE NOT SUBJECT
    TO NWS AND FAA QUALITY CONTROL.

TXZ171-172-183>190-251200-
TEXAS HILL COUNTRY AND EDWARDS PLATEAU

CITY           SKY/WX    TMP DP  RH WIND       PRES   REMARKS
JUNCTION       CLEAR     32  30  92 W5        30.06F WCI  27
*LLANO         CLEAR     39  36  87 SW6       30.06F WCI  35
BURNET         CLEAR     45  35  68 W12       30.03F WCI  39
*HORSESHOE BAY CLEAR     41  33  74 CALM      30.03F
*KERRVILLE     CLEAR     33  32  95 NW5       30.05F WCI  29
*FREDERICKSBRG CLEAR     40  31  70 CALM      30.03F
*ROCKSPRINGS   CLEAR     37  30  75 W9        30.08F WCI  31
*BOERNE STAGE  CLEAR     36  32  87 W6        30.04F WCI  31
*CASTROVILLE   CLEAR     41  37  86 W6        30.08F WCI  37
HONDO          CLEAR     42  37  82 CALM      30.09F
*UVALDE        CLEAR     40  36  87 CALM      30.09F
DEL RIO        PTCLDY    41  35  79 CALM      30.08F
LAUGHLIN AFB   PTCLDY    41  34  77 N8        30.09F WCI  35
CARRIZO SPRGS  CLOUDY    45  36  70 CALM      30.09R
$$

TXZ173-191>194-202-209-217>225-228-251200-
CENTRAL AND SOUTH CENTRAL TEXAS

CITY           SKY/WX    TMP DP  RH WIND       PRES   REMARKS
GEORGETOWN     CLEAR     45  36  70 W10       29.99F WCI  39
AUSTIN/BERGSTM CLEAR     37  35  92 W5        30.03S WCI  33
AUSTIN/MABRY   CLEAR     43  37  79 VRB3      30.03F
*AUSTIN/EXEC   CLEAR     41  36  81 SW3       30.02S
*LAGO VISTA    CLEAR     46  36  69 W7        30.01F WCI  42
SAN MARCOS     CLEAR     41  36  81 W5        30.03F WCI  38
NEW BRAUNFELS  CLEAR     39  35  86 W7        30.03F WCI  34
RANDOLPH AFB   CLEAR     44  37  74 SW5       30.05F WCI  42
PT SAN ANTONIO PTCLDY    43  38  81 S5        30.04F WCI  41
SAN ANTONIO    PTCLDY    41  37  86 NW3       30.05F
STINSON FIELD  PTCLDY    44  38  79 S3        30.05F
*PLEASANTON    PTCLDY    45  37  74 CALM      30.08F
*LA GRANGE     CLEAR     43  36  76 SW6       30.02S WCI  39
*GIDDINGS      NOT AVBL
*GONZALES      CLEAR     41  36  81 S5        30.03F WCI  38
$$

TXZ163>164-176>182-195>201-210>213-226-227-235-251200-
SOUTHEAST TEXAS

CITY           SKY/WX    TMP DP  RH WIND       PRES   REMARKS
COLLEGE STN    CLEAR     43  36  76 W8        30.01F WCI  38
*BRYAN         CLEAR     41  36  80 SW6       30.00F WCI  37
*CALDWELL      CLEAR     41  36  81 W6        30.04S WCI  37
*CROCKETT      CLEAR     39  36  87 S3        30.01F
*BRENHAM       CLEAR     42  35  76 CALM      30.02F
HUNTSVILLE     CLEAR     46  34  62 W6        30.01S WCI  43
CONROE         CLEAR     33  32  96 CALM      30.01F
HOUSTON BUSH   PTCLDY    45  37  73 SW6       30.03F WCI  42
HOUSTON HOBBY  PTCLDY    41  40  96 S6        30.04F WCI  37
*HOUSTON SW AP CLEAR     39  38  98 CALM      30.06S
PEARLAND       CLEAR     45  42  89 CALM      30.07R
HOUSTON HOOKS  CLEAR     41  36  82 SW5       30.02F WCI  38
ELLINGTON FLD  NOT AVBL
SUGAR LAND     CLEAR     40  38  93 S6        30.04F WCI  36
*HOUSTON EXEC    N/A    N/A N/A N/A MISG        N/A
*CLEVELAND MUN NOT AVBL
*WHARTON       PTCLDY    44  40  87 SW7       30.06S WCI  40
*COLUMBUS      FAIR      41  36  80 CALM      30.04S
$$

TXZ214>216-236>238-251200-
THE UPPER TEXAS COAST

CITY           SKY/WX    TMP DP  RH WIND       PRES   REMARKS
*ORANGE        CLEAR     44  43  93 SW5       30.05F WCI  42
PORT ARTHUR    CLEAR     41  40  96 SW6       30.03F FOG     WCI  37
GALVESTON      CLEAR     47  44  90 SW7       30.07S WCI  44
ANGLETON       CLEAR     42  42 100 CALM      30.06S
*BAY CITY      PTCLDY    46  44  94 SW7       30.05F WCI  42
PALACIOS       PTCLDY    47  42  83 SW7       30.07F WCI  44
$$

TXZ229>234-239>247-251200-
TEXAS COASTAL BEND AND RIO GRANDE PLAINS

CITY           SKY/WX    TMP DP  RH WIND       PRES   REMARKS
VICTORIA       PTCLDY    45  36  70 SW7       30.07F WCI  41
*BEEVILLE      PTCLDY    49  37  62 W6        30.08S WCI  47
ROCKPORT       CLOUDY    50  39  66 SW7       30.08F WCI  47
*PORT ARANSAS  PTCLDY    49  42  74 SW7       30.09S WCI  47
*PORT LAVACA   PTCLDY    46  42  85 SW8       30.07F WCI  42
*INGLESIDE     CLOUDY    51  39  64 SW6G20    30.09S
CORPUS CHRISTI CLOUDY    43  38  82 SW3       30.09F
CORPUS NAS     MOCLDY    46  39  76 SW10      30.09F WCI  41
*ROBSTOWN      NOT AVBL
ALICE          MOCLDY    45  36  70 SW7       30.08F WCI  41
KINGSVILLE NAS MOCLDY    40  37  89 SW5       30.09F WCI  37
COTULLA        CLOUDY    46  38  73 N3        30.09S
*FAITH RANCH   CLOUDY    43  36  75 S3        30.09S
LAREDO         NOT AVBL
$$

TXZ248>255-251200-
DEEP SOUTH TEXAS

CITY           SKY/WX    TMP DP  RH WIND       PRES   REMARKS
BROWNSVILLE    CLEAR     46  43  89 SW5       30.12F WCI  44
PORT ISABEL    CLEAR     46  42  86 SW7       30.10F WCI  42
*SOUTH PADRE   CLEAR    N/A N/A N/A CALM      30.11S
HARLINGEN      PTCLDY    47  42  83 SW9       30.11F WCI  43
*HEBBRONVILLE  MOCLDY    46  35  65 SW5       30.08F WCI  44
MCALLEN        MOCLDY    46  41  82 CALM      30.12F
*WESLACO       PTCLDY    46  38  76 CALM      30.11F
FALFURRIAS     MOCLDY    40  33  77 SW5       30.09F WCI  37
EDINBURG       CLEAR     45  40  80 S3        30.11F
*ZAPATA        CLEAR     41  35  80 CALM      30.08F
$$

TXZ213>215-236>238-242>244-246-247-251-254-255-251200-
CMAN STATIONS

STATION/POSITION TIME  TEMP    WIND        PRES    WAVE
                       AIR SEA DIR/SP/G            HT/PER
                 (UTC) (F)     (DEG/KT/KT) (MB)    (FT/S)
SABINE PASS      1100   45 51  240/  3/  6 1017.1
SEA RIM ST PARK  1100   47     240/  7/  8 1017.6
NORTH JETTY/GLS  1100   51 53  270/  9/ 10   N/A
EAGLE POINT      1100   46 51  260/  5/  6 1017.4
MORGANS POINT    1100   46     230/  3/  5 1017.0
MISSION/ARANSAS  1000   50     VRB  8      1020.0
PORT O`CONNOR    1100          230/ 10/ 12   N/A
PORT ARANSAS     1100   51 54  240/ 11/ 12 1019.2
MALAQUITE BEACH  1100   49 54  220/  9/ 10 1018.2
BAFFIN BAY       1100   50     210/ 11/ 13 1018.9
PORT ISABEL      1100   47 55  220/  4/  5 1019.7
$$

GMZ080-GMZ150>470-251200-
OFFSHORE BUOY REPORTS

STATION/POSITION TIME  TEMP    WIND        PRES    WAVE
                       AIR SEA DIR/SP/G            HT/PER
                 (UTC) (F)     (DEG/KT/KT) (MB)    (FT/S)
20 E GALVESTON   1100   54 54  240/ 12/ 14 1017.3    2/ 4
90 E PT ARANSAS  1100   64 69  250/ 16/ 19 1018.4    3/ 4
35 NE PT MANSFLD 1100   60 66  220/ 16/ 19 1018.6    3/ 5
200 E PT ISABEL  1100   62 72  270/ 12/ 17 1019.5    3/ 5
$$